sat.trackr.live / text

‹ back to catalog

STARLINK-37226

NORAD 68619 · 2026-073T

PAYLOAD ACTIVE UNKNOWN

§ Identity

Operator
Country
US
Launch date
2026-04-07
Launch site
AFWTR
Launch vehicle
Mass (kg)
RCS (m²)

Purposes: comms

External: N2YO · Heavens-Above · Gunter

§ Orbital elements

Epoch: 2026-09-19T00:34:25.702176Z

Period
93.91 min
Inclination
97.2849°
Eccentricity
0.0002607
Mean motion
15.33445348 rev/d
Perigee alt
463.8 km
Apogee alt
467.3 km
Semi-major
6,843.7 km
B*
3.7933e-4
RAAN
100.0495°
Arg perigee
92.2234°
Mean anomaly
267.9307°
Rev number
2,551

§ Raw data

STARLINK-372261 68619U 26073T   26262.02390859  .00012192  00000+0  37933-3 0  99942 68619  97.2849 100.0495 0002607  92.2234 267.9307 15.33445348 25514

JSON: /api/v1/satellites/68619 · /tle

For live sub-satellite position, see the globe view (requires WebGL).

§ Visibility from observer

Set your observer location to see the next 7 days of passes ≥ 10°. The values pass through the URL so the page stays shareable.

No JS? Fill the form by hand. The geolocation button needs JavaScript.